Terminal Aerodrome Forecast
Issued by NWS Wilmington, OH

Current Version | Previous Version | Graphics & Text | Print | Product List | Glossary On
Versions: 1 2 3 4 5 6 7 8 9 10 11 12 13 14 15 16 17 18 19 20 21 22 23
000
FTUS41 KILN 240800 AAA
TAFILN
TAF AMD
KILN 240856Z 2409/2506 13003KT P6SM SKC
     FM241400 27008KT P6SM FEW050 SCT150
     FM242300 19004KT P6SM SCT100 BKN150
     FM250300 12003KT P6SM OVC080=

USA.gov is the U.S. government's official web portal to all federal, state and local government web resources and services.